Location: Newark
(50.4348°N, 30.5552°E)
Time: 02:28:50
(UTC+00:00)

Envisat - Pass Details

Date: 15 December 2019
Orbit: 764 x 766 km, 98.1° (Epoch: 23 January)

Event Time Altitude Azimuth Distance (km) Brightness Sun altitude
Rises 14:32:38 0° 129° (SE) 3,227 6.0 -6.0°
Reaches altitude 10° 14:35:13 10° 118° (ESE) 2,305 5.2 -6.3°
Maximum altitude 14:39:27 27° 61° (ENE) 1,433 3.9 -6.9°
Drops below altitude 10° 14:43:42 10° 5° (N) 2,317 5.2 -7.5°
Sets 14:46:17 0° 354° (N) 3,248 6.0 -7.9°
